Flag for Germany Weather past 2 weeks in Waren (Müritz), Mecklenburg-Western Pomerania, Germany

Now
59 °F

Passing clouds.


Feels Like: 57 °F
Forecast: 48 / 68 °F
Wind: 13 mph from West

Location: Laage

Current Time: Aug 21, 2014 at 12:25:08 PM

Latest Report: Aug 21, 2014 at 11:20 AM


Visibility: N/A

Pressure: 29.95 "Hg

Humidity: 59%

Dew point: 45 °F

Location of Waren (Müritz)Location

Historic Weather in Waren (Müritz) — Graph

°F

Waren (Müritz) temperature yesterday

Maximum temperature yesterday: 61 °F (at 12:20 PM)
Minimum temperature yesterday: 52 °F (at 2:20 AM)
Average temperature yesterday: 56 °F

Past Weeks' High & Low Weather Summary

 TemperatureHumidityPressure
High75 °F (Aug 7, 11:20 AM)100% (Aug 7, 2:20 AM)30.04 "Hg (Aug 7, 2:20 AM)
Low46 °F (Aug 21, 5:20 AM)41% (Aug 11, 4:59 PM)29.47 "Hg (Aug 18, 2:20 PM)
Average62 °F76%29.80 "Hg
* Reported Aug 6 10:20 AM — Aug 21 10:20 AM, Waren (Müritz), Weather by CustomWeather, © 2014

Note: Actual official high and low records may vary slightly from our data, if they occured in-between our weather recording intervals... More about our weather records

Advertising

Waren (Müritz) weather history for previous 24 hours

 ConditionsComfort  
Time TempWeatherWind HumidityBarometerVisibility
10:20 AM
Aug 21
57 °FPassing clouds.12 mph72%29.95 "HgN/A
9:20 AM54 °FPassing clouds.10 mph82%29.95 "HgN/A
8:20 AM50 °FPassing clouds.7 mph94%29.95 "HgN/A
7:20 AM48 °FScattered clouds.7 mph94%29.95 "HgN/A
6:20 AM46 °FPassing clouds.7 mph93%29.95 "HgN/A
5:20 AM46 °FPassing clouds.7 mph93%29.92 "HgN/A
4:20 AM48 °FPassing clouds.6 mph87%29.92 "HgN/A
3:20 AM48 °FCool.6 mph94%29.92 "HgN/A
2:20 AM48 °FPassing clouds.6 mph94%29.95 "HgN/A
1:20 AM50 °FPassing clouds.8 mph88%29.92 "HgN/A
12:20 AM52 °FPassing clouds.9 mph88%29.92 "HgN/A
11:20 PM
Aug 20
54 °FCool.8 mph82%29.92 "HgN/A
10:20 PM54 °FPassing clouds.8 mph82%29.92 "HgN/A
9:20 PM55 °FPassing clouds.8 mph77%29.92 "HgN/A
8:20 PM57 °FPassing clouds.8 mph72%29.89 "HgN/A
7:20 PM59 °FPassing clouds.12 mph63%29.89 "HgN/A
6:20 PM61 °FScattered showers. Passing clouds.9 mph68%29.89 "HgN/A
5:20 PM59 °FScattered showers. Scattered clouds.10 mph77%29.89 "HgN/A
4:20 PM61 °FScattered showers. Passing clouds.16 mph68%29.89 "HgN/A
3:20 PM57 °FScattered showers. Passing clouds.10 mph88%29.86 "HgN/A
2:20 PM55 °FSprinkles. Broken clouds.14 mph88%29.86 "HgN/A
1:20 PM61 °FBroken clouds.17 mph63%29.86 "HgN/A
12:20 PM61 °FBroken clouds.17 mph63%29.83 "HgN/A
Weather by CustomWeather, © 2014

See weather overviewHow to use our weather pages